Regional Weather Roundup
Issued by NWS Charleston, SC

Current Version | Previous Version | Text Only | Print | Product List | Glossary Off
Versions: 1 2 3 4 5 6 7 8 9 10 11 12 13 14 15 16 17 18 19 20 21 22 23 24 25 26 27 28 29 30 31 32 33 34 35 36 37 38 39 40 41 42 43 44 45 46 47 48 49 50
000 ASUS42 KCHS 270525 RWRCHS REGIONAL WEATHER ROUNDUP NATIONAL WEATHER SERVICE CHARLESTON SC 1200 AM EST THU NOV 27 2014 NOTE: "FAIR" INDICATES FEW OR NO CLOUDS BELOW 12,000 FEET WITH NO SIGNIFICANT WEATHER AND/OR OBSTRUCTIONS TO VISIBILITY. NOT ALL STATIONS ARE QUALITY CONTROLLED BY THE NATIONAL WEATHER SERVICE. USE DATA WITH CAUTION...ESPECIALLY DEWPOINT OBSERVATIONS. SCZ027-030-031-034>040-042>050-270600- ...SOUTHEAST SOUTH CAROLINA... CITY SKY/WX TMP DP RH WIND PRES REMARKS N CHARLESTON CLEAR 46 40 79 W6 30.13R WATERFRONT PRK N/A 50 N/A N/A W5 N/A MOUNT PLEASANT FAIR 48 43 81 W6 30.14R JOHNS ISLAND CLEAR 46 46 100 W3 30.15R PINOPOLIS N/A 50 45 81 SW8 30.03R MONCKS CORNER FAIR 45 45 100 SW3 30.12S SUMMERVILLE FAIR 43 43 100 CALM 30.14R BEAUFORT MCAS CLEAR 47 37 68 W9 30.14S BEAUFORT ARPT FAIR 46 39 76 W7 30.14S HILTON HEAD IS CLEAR 48 37 66 SW8 30.16F WALTERBORO CLEAR 43 43 100 SW3 30.14S ALLENDALE FAIR 39 39 100 CALM 30.12F ...SOUTHERN MIDLANDS AND PEE DEE... CITY SKY/WX TMP DP RH WIND PRES REMARKS GEORGETOWN NOT AVBL KINGSTREE NOT AVBL ORANGEBURG CLEAR 40 36 86 S6 30.11R WCI 36 BARNWELL N/A 39 37 93 S3 30.11F AIKEN MOCLDY 39 32 75 SW6 30.11S WCI 35 MANNING NOT AVBL COLUMBIA CLEAR 41 34 76 W6 30.08R SUMTER CLEAR 42 35 76 SW7 30.07S FLORENCE PTCLDY 42 40 92 SW6 30.08S FOG MYRTLE BEACH CLEAR 45 43 93 CALM N/A N MYRTLE BEACH FOG 41 40 96 CALM 30.09F VSB 1/4 $$ GAZ063-065-086>088-099>101-113>116-118-119-134>141-150-270600- ...SOUTHEAST GEORGIA... CITY SKY/WX TMP DP RH WIND PRES REMARKS SAVANNAH ARPT CLEAR 46 35 65 W6 30.16S HUNTER AAF CLEAR 44 37 75 W7 30.14S FORT STEWART CLEAR 44 36 74 SW6 30.15F STATESBORO NOT AVBL SYLVANIA CLEAR 43 38 80 SW3 30.14F CLAXTON FAIR 37 32 81 CALM 30.15F ...CSRA...CENTRAL AND FAR SOUTHEAST GEORGIA... CITY SKY/WX TMP DP RH WIND PRES REMARKS THOMSON CLOUDY 43 39 85 CALM 30.13S AUGUSTA-BUSH PTCLDY 38 32 79 CALM 30.10F AUGUSTA-DANIEL MOCLDY 45 28 51 VRB3 30.10F SWAINSBORO FAIR 45 36 70 CALM 30.14S VIDALIA CLEAR 43 36 75 SW3 30.15F HAZLEHURST FAIR 45 38 76 SW3 30.15F ALMA CLEAR 41 36 82 S3 30.17F WAYCROSS CLEAR 46 39 77 SW3 30.19S JESUP FAIR 39 37 93 CALM 30.18F BAXLEY FAIR 46 36 66 SW5 30.17S BRUNSWICK CLEAR 45 36 70 W6 30.20R SAINT SIMONS CLEAR 48 37 65 W6 30.19S $$ SCZ027-028-034-036>038-045-046-048>050-GAZ119-141-270600- ...LAKE AND SUPPLEMENTAL COASTAL OBSERVATIONS... STATION/POSITION TIME TEMP WIND PRES WAVE SWELL AIR SEA DIR/SP/G HT/PER HT/PER/DIR (UTC) (F) (DEG/KT/KT) (MB) (FT/S) (FT/S/D) UPR LAKE MARION NOT AVBL WINYAH BAY 0500 46 CALM 1019.0S LAKE MURRAY 0400 50 250/ 11/ 13 1017.9R ACE BASIN NERRS 0500 43 CALM 1020.0S FORT PULASKI 0500 50 240/ 8/ 12 1021.4F SAPELO ISLAND 0500 50 260/ 8 1022.0S $$ ANZ835-935-AMZ111-154-330-350-352-354-370-450-454-472-270600- ...C-MAN AND BUOY OBSERVATIONS... STATION/POSITION TIME TEMP WIND PRES WAVE SWELL AIR SEA DIR/SP/G HT/PER HT/PER/DIR (UTC) (F) (DEG/KT/KT) (MB) (FT/S) (FT/S/D) FOLLY BEACH CMAN 0500 50 260/ 7/ 10 1020.9R BUOY 41004 0500 61 74 260/ 17/ 21 1019.0F 4/ 9 2/ 9 BUOY 41008 0500 58 64 280/ 17/ 21 1021.2R 3/ 4 2/120/10 CAPERS NEARSHORE 0400 56 260/ 16/ 17 N/A FRIPP NEARSHORE NOT AVBL STATION/POSITION TIME TEMP WIND PRES WAVE SWELL AIR SEA DIR/SP/G HT/PER HT/PER/DIR (UTC) (F) (DEG/KT/KT) (MB) (FT/S) (FT/S/D) 5E ST. MARYS GA 0500 63 N/A 2/10 FRYING PAN BUOY 0500 54 71 300/ 10/ 14 1019.7F 4/ 9 3/150/ 9 BUOY 41025 0500 48 290/ 17/ 23 1017.6R 10/10 7/160/10 CAPE LOOKOUT NC 0500 45 300/ 8/ 10 1019.5R BUOY 41002 0412 66 73 300/ 17/ 23 1018.9R 10/ 8 7/230/ 8 BUOY 41010 0500 68 77 320/ 14/ 19 1021.0F 8/ 8 7/350/ 8 ST AUGUSTINE FL 0500 49 300/ 8/ 9 1023.4R $$

USA.gov is the U.S. government's official web portal to all federal, state and local government web resources and services.